This demonstration page uses our WeatherBlox Daily Observations layout. Learn more.

Left ArrowRight Arrow

Hourly Observations for April 17, 2019

Temp ( °F °C ) Dew Point ( °F °C ) Humidity (%) Winds ( mph kmh ) Pressure ( in mb ) Visibility ( mi km ) Precip ( " mm )
12:52 am 00:52 Mostly Cloudy 69 20.6 53 11.7 57 57 SE 14 22 29.70 1006 10 16 0.00 0.00
1:52 am 01:52 Mostly Cloudy 70 21.1 56 13.3 61 61 SSE 13 20 29.68 1005 10 16 0.00 0.00
2:52 am 02:52 Mostly Cloudy 68 20 57 13.9 68 68 S 12 19 29.66 1005 10 16 0.00 0.00
3:52 am 03:52 Cloudy 68 20 57 13.9 68 68 S 8 13 29.65 1004 10 16 0.00 0.00
4:52 am 04:52 Mostly Cloudy 67 19.4 56 13.3 68 68 SSE 13 20 29.63 1003 10 16 0.00 0.00
5:52 am 05:52 Cloudy 67 19.4 57 13.9 71 71 S 16 26 29.62 1003 10 16 0.00 0.00
6:52 am 06:52 Cloudy 67 19.4 57 13.9 71 71 S 13 20 29.63 1003 10 16 0.00 0.00
7:22 am 07:22 Cloudy 67 19.4 57 13.9 71 71 S 13 20 29.64 1004 10 16 0.00 0.00
7:52 am 07:52 Cloudy 66 18.9 57 13.9 73 73 SSE 10 17 29.63 1004 10 16 0.00 0.00
8:22 am 08:22 Cloudy 66 18.9 56 13.3 70 70 SSE 14 22 29.62 1003 10 16 0.00 0.00
8:52 am 08:52 Cloudy 65 18.3 57 13.9 76 76 S 18 30 29.60 1002 10 16 0.00 0.03
9:49 am 09:49 Cloudy 66 19 55 13 68 68 S 18 30 29.60 1002 10 16 0.00 0.00
9:52 am 09:52 Cloudy 67 19.4 56 13.3 68 68 S 15 24 29.60 1003 10 16 0.00 0.00
10:52 am 10:52 Cloudy with Light Rain 67 19.4 58 14.4 73 73 SW 6 9 29.60 1003 10 16 0.00 0.03
11:52 am 11:52 Cloudy 68 20 60 15.6 76 76 ESE 7 11 29.57 1002 10 16 0.00 0.03
12:52 pm 12:52 Cloudy with Light Rain 68 20 60 15.6 76 76 SW 20 31 29.59 1002 10 16 0.00 0.03
1:50 pm 13:50 Mostly Cloudy 63 17 52 11 68 68 NW 22 35 29.62 1003 10 16 0.00 0.03
1:52 pm 13:52 Mostly Cloudy 62 16.7 51 10.6 67 67 NW 22 35 29.63 1003 10 16 0.00 0.03
2:52 pm 14:52 Partly Cloudy 66 18.9 49 9.4 54 54 WNW 18 30 29.62 1003 10 16 0.00 0.00
3:52 pm 15:52 Partly Cloudy 68 20 50 10 53 53 WNW 17 28 29.62 1003 10 16 0.00 0.00
4:52 pm 16:52 Mostly Cloudy 68 20 50 10 53 53 NW 21 33 29.62 1003 10 16 0.00 0.00
5:52 pm 17:52 Mostly Cloudy 65 18.3 47 8.3 52 52 NW 20 31 29.66 1004 10 16 0.00 0.00
6:52 pm 18:52 Cloudy 59 15 45 7.2 60 60 NNW 21 33 29.70 1006 10 16 0.00 0.00
7:52 pm 19:52 Mostly Cloudy 56 13.3 44 6.7 65 65 NW 17 28 29.75 1008 10 16 0.00 0.00
8:52 pm 20:52 Mostly Clear 53 11.7 43 6.1 69 69 NW 14 22 29.77 1008 10 16 0.00 0.00
9:52 pm 21:52 Mostly Cloudy 52 11.1 42 5.6 69 69 NNW 21 33 29.77 1008 10 16 0.00 0.00
10:52 pm 22:52 Cloudy 51 10.6 41 5 69 69 NNW 25 41 29.76 1008 10 16 0.00 0.00
11:52 pm 23:52 Cloudy 50 10 41 5 71 71 NNW 14 22 29.78 1009 10 16 0.00 0.00

Powered by AerisWeather